Tracking 30995 objects as of 7-Jul-2025
HD Live streaming from Space Station
objects crossing your sky now

DELTA 1 DEB

Track DELTA 1 DEB now!
10-day predictions


NORAD ID: 21933
Int'l Code: 1975-052JT
Perigee: 1,057.1 km
Apogee: 1,300.4 km
Inclination: 99.3 °
Period: 108.8 minutes
Semi major axis: 7549 km
RCS: 0.0315 m2 (small)
Launch date: June 12, 1975
Source: United States (US)
Launch site: AIR FORCE WESTERN TEST RANGE (AFWTR)

Note: This is SATELLITE DEBRIS
Your satellite tracking list
Your tracking list is empty




NASA's NSSDC Master Catalog

Two Line Element Set (TLE):
1 21933U 75052JT  25186.72728359  .00000222  00000-0  57048-3 0  9995
2 21933  99.3495 277.1714 0161114  57.3305  95.4367 13.23441028626405
Source of the keplerian elements: AFSPC